Change the Weather History Date:

Wednesday, April 16, 2014

  Actual Average Record
Temperature  
Mean Temperature 63 °F -  
Max Temperature 81 °F 76 °F 91 °F (1925)
Min Temperature 46 °F 42 °F 26 °F (1945)
Degree Days  
Heating Degree Days 2    
Growing Degree Days 13 (Base 50)    
Moisture  
Dew Point 16 °F    
Average Humidity 18    
Maximum Humidity 34    
Minimum Humidity 8    
Precipitation  
Precipitation 0.00 in - - ()
Sea Level Pressure  
Sea Level Pressure 29.68 in    
Wind  
Wind Speed 18 mph (NW)    
Max Wind Speed 29 mph    
Max Gust Speed 39 mph    
Visibility 10 miles    
Events      
Averages and records for this station are not official NWS values.
T = Trace of Precipitation, MM = Missing Value Source: NWS Daily Summary

Daily Weather History Graph

Daily Weather History Graph

Search for Another Location

Airport or City:

Trip Planner

Search our weather history database for the weather conditions in past years. The results will help you decide how hot, cold, wet, or windy it might be!

Date:

Astronomy

Apr. 16, 2014 Rise Set
Actual Time 6:20 AM MDT 7:27 PM MDT
Civil Twilight 5:54 AM MDT 7:54 PM MDT
Nautical Twilight 5:23 AM MDT 8:25 PM MDT
Astronomical Twilight 4:51 AM MDT 8:57 PM MDT
Moon 9:10 PM MDT (4/16) 7:12 AM MDT (4/16)
Length of Visible Light 13h 59m
Length of Day
13h 07m
Full, 98% of the Moon is Illuminated
Apr 16
Full
Apr 22
Last Quarter
Apr 29
New
May 6
First Quarter
May 14
Full

Hourly Weather History & Observations

Time (MDT) Temp. Windchill Dew Point Humidity Pressure Visibility Wind Dir Wind Speed Gust Speed Precip Events Conditions
12:53 AM 54.0 °F - 8.1 °F 16% 29.71 in 10.0 mi SW 13.8 mph - N/A   Clear
1:53 AM 53.1 °F - 7.0 °F 16% 29.69 in 10.0 mi SW 18.4 mph - N/A   Clear
2:53 AM 53.1 °F - 6.1 °F 15% 29.67 in 10.0 mi SW 21.9 mph - N/A   Clear
3:53 AM 52.0 °F - 7.0 °F 16% 29.66 in 10.0 mi SW 19.6 mph - N/A   Clear
4:53 AM 50.0 °F - 8.1 °F 18% 29.66 in 10.0 mi SW 13.8 mph - N/A   Clear
5:53 AM 46.0 °F 39.6 °F 9.0 °F 22% 29.67 in 10.0 mi WSW 15.0 mph - N/A   Clear
6:53 AM 46.0 °F 41.0 °F 10.0 °F 23% 29.69 in 10.0 mi WSW 10.4 mph - N/A   Clear
7:53 AM 53.1 °F - 12.0 °F 20% 29.70 in 10.0 mi West 13.8 mph - N/A   Clear
8:53 AM 59.0 °F - 12.0 °F 16% 29.69 in 10.0 mi West 18.4 mph - N/A   Clear
9:53 AM 64.0 °F - 12.9 °F 14% 29.68 in 10.0 mi WSW 13.8 mph - N/A   Clear
10:53 AM 73.0 °F - 10.9 °F 9% 29.65 in 10.0 mi West 13.8 mph - N/A   Clear
11:53 AM 75.9 °F - 10.9 °F 8% 29.63 in 10.0 mi Variable 5.8 mph - N/A   Clear
12:53 PM 80.1 °F - 12.0 °F 8% 29.60 in 10.0 mi WNW 9.2 mph - N/A   Clear
1:53 PM 77.0 °F - 18.0 °F 11% 29.61 in 10.0 mi ENE 19.6 mph 33.4 mph N/A   Clear
2:53 PM 77.0 °F - 19.9 °F 12% 29.60 in 10.0 mi ENE 21.9 mph 34.5 mph N/A   Clear
3:53 PM 75.9 °F - 19.9 °F 12% 29.58 in 10.0 mi East 27.6 mph 35.7 mph N/A   Clear
4:53 PM 73.0 °F - 19.9 °F 14% 29.60 in 10.0 mi ENE 26.5 mph 35.7 mph N/A   Clear
5:53 PM 70.0 °F - 19.9 °F 15% 29.64 in 10.0 mi ENE 27.6 mph 36.8 mph N/A   Clear
6:53 PM 66.9 °F - 24.1 °F 20% 29.68 in 10.0 mi ENE 27.6 mph 34.5 mph N/A   Clear
7:53 PM 61.0 °F - 27.0 °F 27% 29.75 in 9.0 mi NE 28.8 mph 39.1 mph N/A   Clear
8:53 PM 59.0 °F - 27.0 °F 29% 29.77 in 10.0 mi ENE 28.8 mph 34.5 mph N/A   Clear
9:53 PM 57.9 °F - 26.1 °F 30% 29.79 in 9.0 mi NE 25.3 mph 36.8 mph N/A   Clear
10:53 PM 55.9 °F - 26.1 °F 32% 29.81 in 10.0 mi NE 27.6 mph 35.7 mph N/A   Clear
11:53 PM 55.0 °F - 27.0 °F 34% 29.83 in 10.0 mi NE 21.9 mph 32.2 mph N/A   Clear